Home   Weather   Korneuburg   Past weeks

Flag for Austria Past Weather in Korneuburg, Lower Austria, Austria — Yesterday and Last 2 Weeks

Now
40 °F

Overcast.


Feels Like: 38 °F
Forecast: 41 / 50 °F
Wind: 3 mph from West

Location: Wien / Hohe Warte

Current Time: Feb 20, 2017 at 9:09:55 pm

Latest Report: Feb 20, 2017 at 8:00 pm


Visibility: 9 mi

Pressure: 30.08 "Hg

Humidity: 83%

Dew Point: 35 °F

Location of KorneuburgLocation

Past Weather in Korneuburg — Graph

°F

Korneuburg Temperature Yesterday

Maximum temperature yesterday: 43 °F (at 4:00 pm)
Minimum temperature yesterday: 29 °F (at 7:00 am)
Average temperature yesterday: 36 °F

High & Low Weather Summary for the Past Weeks

 TemperatureHumidityPressure
High49 °F (Feb 15, 3:00 pm)98% (Feb 17, 6:00 am)30.64 "Hg (Feb 17, 6:00 am)
Low26 °F (Feb 9, 6:00 am)44% (Feb 15, 4:00 pm)29.70 "Hg (Feb 5, 7:00 pm)
Average35 °F81%30.33 "Hg
* Reported Feb 5 7:00 pm — Feb 20 7:00 pm, Korneuburg, Weather by CustomWeather, © 2017

Note: Actual official high and low records may vary slightly from our data, if they occured in-between our weather recording intervals... More about our weather records

Advertising

Korneuburg Weather History for the Previous 24 Hours

Scroll right to see more
 ConditionsComfort  
Time TempWeatherWind HumidityBarometerVisibility
7:00 pm
Mon, Feb 20
41 °FPassing clouds.2 mph81%30.09 "Hg12 mi
6:00 pm44 °FPassing clouds.2 mph75%30.10 "Hg12 mi
5:00 pm46 °FPassing clouds.5 mph70%30.12 "Hg11 mi
4:00 pm47 °FPassing clouds.7 mph68%30.12 "Hg11 mi
3:00 pm48 °FScattered clouds.7 mph66%30.15 "Hg11 mi
2:00 pm48 °FScattered clouds.9 mph67%30.15 "Hg9 mi
1:00 pm47 °FPartly sunny.6 mph68%30.16 "Hg9 mi
12:00 pm46 °FOvercast.8 mph71%30.19 "Hg6 mi
11:00 am47 °FPartly sunny.6 mph68%30.20 "Hg6 mi
10:00 am43 °FPartly sunny.6 mph76%30.20 "Hg6 mi
9:00 am41 °FOvercast.6 mph79%30.22 "Hg9 mi
8:00 am39 °FOvercast.3 mph82%30.21 "Hg9 mi
7:00 am38 °FOvercast.7 mph84%30.20 "Hg6 mi
6:00 am35 °FPassing clouds.3 mph88%30.20 "Hg7 mi
5:00 am36 °FChilly.3 mph86%30.19 "HgN/A
4:00 am37 °FChilly.5 mph84%30.20 "HgN/A
3:00 am35 °FChilly.3 mph89%30.20 "HgN/A
2:00 am35 °FChilly.5 mph89%30.22 "HgN/A
1:00 am34 °FClear.3 mph93%30.22 "Hg7 mi
12:00 am32 °FChilly.1 mph94%30.21 "HgN/A
11:00 pm
Sun, Feb 19
33 °FChilly.1 mph93%30.21 "HgN/A
10:00 pm35 °FPassing clouds.2 mph91%30.20 "Hg6 mi
9:00 pm36 °FPassing clouds.3 mph88%30.19 "Hg7 mi
Weather by CustomWeather, © 2017

See weather overviewHow to use our weather pages